Regional Weather Roundup
Issued by NWS

Home | Current Version | Previous Version | Text Only | Print | Product List | Glossary Off
Versions: 1 2 3 4 5 6 7 8 9 10 11 12 13 14 15 16 17 18 19 20 21 22 23 24 25 26 27 28 29 30 31 32 33 34 35 36 37 38 39 40 41 42 43 44 45 46 47 48 49 50

000
ASUS43 KDMX 271507
RWRIA

WEATHER ROUNDUP FOR IOWA
NATIONAL WEATHER SERVICE DES MOINES IA
1000 AM CDT WED MAY 27 2015

NOTE: "FAIR" INDICATES FEW OR NO CLOUDS BELOW 12,000 FEET WITH NO
SIGNIFICANT WEATHER AND/OR OBSTRUCTIONS TO VISIBILITY.

* - THESE STATIONS ARE NOT NWS STATIONS...THUS NOT UNDER NWS
QUALITY CONTROL.  THEY ALSO DO NOT REPORT WEATHER SUCH
AS PRECIPITATION OR FOG.

IAZ001>003-012>014-020>022-031>034-043>046-271600-
   NORTHWEST IOWA

CITY           SKY/WX    TMP DP  RH WIND       PRES   REMARKS
CARROLL *      SUNNY     70  61  73 SW8       30.04R
CHEROKEE *     SUNNY     68  59  73 NW5       30.02S
DENISON *      SUNNY     66  63  88 W6        30.03S
LE MARS *      SUNNY     70  57  64 W6        30.04R
ORANGE CITY *  SUNNY     66  55  68 W3        30.03R
SHELDON *      SUNNY     70  54  56 NW8       30.00S
SIOUX CITY     SUNNY     69  56  62 VRB3      30.04R
SPENCER        SUNNY     70  57  63 W13       30.00S
STORM LAKE *   SUNNY     68  59  73 W10       30.03S
$$

IAZ055>058-069>071-079>083-090>094-271600-
   SOUTHWEST IOWA

CITY           SKY/WX    TMP DP  RH WIND       PRES   REMARKS
ATLANTIC *     SUNNY     68  59  73 W5        30.06S
AUDUBON *      SUNNY     70  61  73 SW5       30.06S
CLARINDA *     SUNNY     70  59  68 N9        30.08R
COUNCIL BLFS * SUNNY     70  61  73 VRB5      30.06S
CRESTON *      SUNNY     68  59  73 VRB7      30.06S
HARLAN  *      SUNNY     66  64  94 W7        30.09R
LAMONI         SUNNY     72  59  63 NW7       30.06R
RED OAK *      SUNNY     70  59  68 N6        30.06S
SHENANDOAH *   SUNNY     70  59  68 CALM      30.07R
$$

IAZ047>049-059>061-072>074-084-271600-
   CENTRAL IOWA

CITY           SKY/WX    TMP DP  RH WIND       PRES   REMARKS
AMES           SUNNY     70  59  68 NW7       30.02R
ANKENY *       SUNNY     68  59  73 W8        30.03S
CHARITON *     SUNNY     68  59  73 NW7       30.05R
DES MOINES     SUNNY     71  57  61 VRB7      30.03R
GRINNELL*      MOSUNNY   64  59  82 W9        30.04R
KNOXVILLE *    SUNNY     66  57  72 NW7       30.03R
MARSHALLTOWN   SUNNY     67  60  78 W8        30.01R
PELLA *        SUNNY     68  63  83 W3        30.05R
PERRY *          N/A     68  59  73 W8        30.04R
$$

IAZ004>006-015-016-023>025-035-036-271600-
   NORTH CENTRAL IOWA

CITY           SKY/WX    TMP DP  RH WIND       PRES   REMARKS
ALGONA *       SUNNY     68  59  73 SW13      30.01R
CLARION *      SUNNY     70 N/A N/A W12       30.01R
ESTHERVILLE    SUNNY     69  57  65 W10       29.98R
FORT DODGE *   SUNNY     70  59  68 SW6       30.03R
MASON CITY     SUNNY     69  58  67 W9        30.00S
FOREST CITY *  SUNNY     68  55  64 SW8       29.99S
IOWA FALLS *     N/A     68  59  73 W10       30.03R
$$

IAZ007>011-017>019-026>030-037>042-050>054-066-271600-
   NORTHEAST IOWA

CITY           SKY/WX    TMP DP  RH WIND       PRES   REMARKS
CEDAR RAPIDS   CLOUDY    64  58  80 NW10      30.01R
CHARLES CITY * SUNNY     66  61  82 NW6       29.99F
CLINTON *      PTSUNNY   64  57  77 W17       30.02R
DECORAH *      SUNNY     64  57  77 VRB6      29.97S
DUBUQUE        CLOUDY    63  57  81 W9        29.99R
MONTICELLO *   PTSUNNY   66  61  82 W8        30.00R
OELWEIN *      PTSUNNY   64  59  82 W7        30.00S
WATERLOO       SUNNY     68  58  70 VRB7      30.00R
$$

IAZ064-065-067-068-078-271600-
   EAST CENTRAL IOWA

CITY           SKY/WX    TMP DP  RH WIND       PRES   REMARKS
DAVENPORT      CLOUDY    65  58  78 W16       30.01R
MT. PLEASANT * MOSUNNY   66  57  72 W12       30.03R
MUSCATINE *    PTSUNNY   68  57  68 NW9       30.02R
QUAD CITIES    PTSUNNY   70  58  65 NW16G24   29.99R
$$

IAZ062-063-075>077-085>089-095>099-271600-
   SOUTHEAST IOWA

CITY           SKY/WX    TMP DP  RH WIND       PRES   REMARKS
BURLINGTON     CLOUDY    67  60  78 W8        30.02R
FAIRFIELD *    MOSUNNY   66  57  72 NW10      30.04R
FORT MADISON * PTSUNNY   66  61  82 NW12      30.04R
KEOKUK *       PTSUNNY   66  59  77 NW9G16    30.03R
OSKALOOSA *    PTSUNNY   66  59  77 W8        30.05R
CENTERVILLE *  SUNNY     68  68 100 NW9       30.07R
OTTUMWA        MOSUNNY   67  59  75 W9        30.04R
WASHINGTON *   MOSUNNY   68  59  73 NW13      30.04R
$$

ABBREVIATIONS USED IN REMARKS
   TC - TEMPERATURES IN CELSIUS
  WCI - WIND CHILL INDEX
   HX - HEAT INDEX
  VSB - VISIBILITY
$$




USA.gov is the U.S. government's official web portal to all federal, state and local government web resources and services.